Time,TemperatureF,DewpointF,PressureIn,WindDirection,WindDirectionDegrees,WindSpeedMPH,WindSpeedGustMPH,Humidity,HourlyPrecipIn,Conditions,Clouds,dailyrainin,SoftwareType,DateUTC
2013-04-23 00:02:00,39.6,29.5,30.33,North,-999,0.0,0.0,67,0.00,,,-99.99,FreeWX-Wi 1.01,2013-04-23 07:02:00,
2013-04-23 00:07:00,39.7,29.7,30.33,North,-999,0.0,0.0,67,0.00,,,-99.99,FreeWX-Wi 1.01,2013-04-23 07:07:00,
2013-04-23 00:12:00,39.7,30.0,30.33,North,-999,0.0,2.2,68,0.00,,,-99.99,FreeWX-Wi 1.01,2013-04-23 07:12:00,
2013-04-23 00:17:00,39.7,30.0,30.33,North,-999,0.0,0.0,68,0.00,,,-99.99,FreeWX-Wi 1.01,2013-04-23 07:17:00,
2013-04-23 00:22:00,39.4,29.3,30.33,North,-999,0.0,0.0,67,0.00,,,-99.99,FreeWX-Wi 1.01,2013-04-23 07:22:00,
2013-04-23 00:27:00,39.2,29.5,-100.00,North,-999,0.0,0.0,68,0.00,,,-99.99,FreeWX-Wi 1.01,2013-04-23 07:27:00,
2013-04-23 00:32:00,38.8,29.1,-100.00,North,-999,0.0,0.0,68,0.00,,,-99.99,FreeWX-Wi 1.01,2013-04-23 07:32:00,
2013-04-23 00:37:00,38.8,29.5,30.33,North,-999,0.0,0.0,69,0.00,,,-99.99,FreeWX-Wi 1.01,2013-04-23 07:37:00,
2013-04-23 00:42:00,38.8,29.5,30.33,North,-999,0.0,0.0,69,0.00,,,-99.99,FreeWX-Wi 1.01,2013-04-23 07:42:00,
2013-04-23 00:47:00,39.4,30.4,-100.00,North,-999,0.0,0.0,70,0.00,,,-99.99,FreeWX-Wi 1.01,2013-04-23 07:47:00,
2013-04-23 00:52:00,39.2,30.2,30.33,North,-999,0.0,0.0,70,0.00,,,-99.99,FreeWX-Wi 1.01,2013-04-23 07:52:00,
2013-04-23 00:57:00,39.0,30.7,30.33,North,-999,0.0,2.2,72,0.00,,,-99.99,FreeWX-Wi 1.01,2013-04-23 07:57:00,
2013-04-23 01:02:00,38.8,30.6,30.33,North,-999,0.0,0.0,72,0.00,,,-99.99,FreeWX-Wi 1.01,2013-04-23 08:02:00,
2013-04-23 01:07:00,38.7,30.7,30.33,North,-999,0.0,2.2,73,0.00,,,-99.99,FreeWX-Wi 1.01,2013-04-23 08:07:00,
2013-04-23 01:12:00,38.7,31.1,30.33,North,-999,0.0,0.0,74,0.00,,,-99.99,FreeWX-Wi 1.01,2013-04-23 08:12:00,
2013-04-23 01:17:00,38.5,30.9,30.33,North,-999,0.0,0.0,74,0.00,,,-99.99,FreeWX-Wi 1.01,2013-04-23 08:17:00,
2013-04-23 01:22:00,38.1,30.6,-100.00,North,-999,0.0,0.0,74,0.00,,,-99.99,FreeWX-Wi 1.01,2013-04-23 08:22:00,
2013-04-23 01:27:00,37.9,30.4,30.33,North,-999,0.0,0.0,74,0.00,,,-99.99,FreeWX-Wi 1.01,2013-04-23 08:27:00,
2013-04-23 01:32:00,37.8,30.6,30.33,North,-999,0.0,0.0,75,0.00,,,-99.99,FreeWX-Wi 1.01,2013-04-23 08:32:00,
2013-04-23 01:37:00,37.6,30.4,30.33,North,-999,0.0,0.0,75,0.00,,,-99.99,FreeWX-Wi 1.01,2013-04-23 08:37:00,
2013-04-23 01:42:00,37.4,30.2,-100.00,North,-999,0.0,0.0,75,0.00,,,-99.99,FreeWX-Wi 1.01,2013-04-23 08:42:00,
2013-04-23 01:47:00,37.0,30.2,30.33,North,-999,0.0,0.0,76,0.00,,,-99.99,FreeWX-Wi 1.01,2013-04-23 08:47:00,
2013-04-23 01:52:00,37.0,30.2,30.33,North,-999,0.0,0.0,76,0.00,,,-99.99,FreeWX-Wi 1.01,2013-04-23 08:52:00,
2013-04-23 01:57:00,37.0,30.2,30.33,North,-999,0.0,0.0,76,0.00,,,-99.99,FreeWX-Wi 1.01,2013-04-23 08:57:00,
2013-04-23 02:02:00,36.9,30.4,30.33,North,-999,0.0,0.0,77,0.00,,,-99.99,FreeWX-Wi 1.01,2013-04-23 09:02:00,
2013-04-23 02:07:00,36.9,30.4,30.30,North,-999,0.0,0.0,77,0.00,,,-99.99,FreeWX-Wi 1.01,2013-04-23 09:07:00,
2013-04-23 02:12:00,36.7,30.2,30.30,North,-999,0.0,0.0,77,0.00,,,-99.99,FreeWX-Wi 1.01,2013-04-23 09:12:00,
2013-04-23 02:17:00,36.5,30.4,30.30,North,-999,0.0,0.0,78,0.00,,,-99.99,FreeWX-Wi 1.01,2013-04-23 09:17:00,
2013-04-23 02:22:00,36.5,30.4,30.30,North,-999,0.0,0.0,78,0.00,,,-99.99,FreeWX-Wi 1.01,2013-04-23 09:22:00,
2013-04-23 02:27:00,36.5,30.4,30.30,North,-999,0.0,0.0,78,0.00,,,-99.99,FreeWX-Wi 1.01,2013-04-23 09:27:00,
2013-04-23 02:32:00,36.5,30.4,30.30,North,-999,0.0,2.2,78,0.00,,,-99.99,FreeWX-Wi 1.01,2013-04-23 09:32:00,
2013-04-23 02:37:00,36.7,30.7,30.30,North,-999,0.0,0.0,79,0.00,,,-99.99,FreeWX-Wi 1.01,2013-04-23 09:37:00,
2013-04-23 02:42:00,36.7,30.7,30.30,North,-999,0.0,0.0,79,0.00,,,-99.99,FreeWX-Wi 1.01,2013-04-23 09:42:00,
2013-04-23 02:47:00,36.5,30.6,30.30,North,-999,0.0,0.0,79,0.00,,,-99.99,FreeWX-Wi 1.01,2013-04-23 09:47:00,
2013-04-23 02:52:00,36.3,30.4,30.30,North,-999,0.0,0.0,79,0.00,,,-99.99,FreeWX-Wi 1.01,2013-04-23 09:52:00,
2013-04-23 02:57:00,36.3,30.7,30.30,North,-999,0.0,0.0,80,0.00,,,-99.99,FreeWX-Wi 1.01,2013-04-23 09:57:00,
2013-04-23 03:02:00,36.1,30.6,30.30,North,-999,0.0,0.0,80,0.00,,,-99.99,FreeWX-Wi 1.01,2013-04-23 10:02:00,
2013-04-23 03:07:00,36.3,31.1,30.30,North,-999,0.0,2.2,81,0.00,,,-99.99,FreeWX-Wi 1.01,2013-04-23 10:07:00,
2013-04-23 03:12:00,36.1,30.9,30.30,North,-999,0.0,0.0,81,0.00,,,-99.99,FreeWX-Wi 1.01,2013-04-23 10:12:00,
2013-04-23 03:17:00,36.1,30.9,30.30,North,-999,0.0,0.0,81,0.00,,,-99.99,FreeWX-Wi 1.01,2013-04-23 10:17:00,
2013-04-23 03:22:00,36.1,31.1,-100.00,North,-999,0.0,0.0,82,0.00,,,-99.99,FreeWX-Wi 1.01,2013-04-23 10:22:00,
2013-04-23 03:27:00,36.0,30.9,30.30,North,-999,0.0,0.0,82,0.00,,,-99.99,FreeWX-Wi 1.01,2013-04-23 10:27:00,
2013-04-23 03:32:00,36.0,31.3,30.30,North,-999,0.0,0.0,83,0.00,,,-99.99,FreeWX-Wi 1.01,2013-04-23 10:32:00,
2013-04-23 03:37:00,36.1,31.5,-100.00,North,-999,0.0,0.0,83,0.00,,,-99.99,FreeWX-Wi 1.01,2013-04-23 10:37:00,
2013-04-23 03:42:00,35.8,31.5,30.30,North,-999,0.0,0.0,84,0.00,,,-99.99,FreeWX-Wi 1.01,2013-04-23 10:42:00,
2013-04-23 03:47:00,35.6,31.3,-100.00,North,-999,0.0,2.2,84,0.00,,,-99.99,FreeWX-Wi 1.01,2013-04-23 10:47:00,
2013-04-23 03:52:00,35.6,31.5,30.27,North,-999,0.0,0.0,85,0.00,,,-99.99,FreeWX-Wi 1.01,2013-04-23 10:52:00,
2013-04-23 03:57:00,35.6,31.5,30.27,North,-999,0.0,0.0,85,0.00,,,-99.99,FreeWX-Wi 1.01,2013-04-23 10:57:00,
2013-04-23 04:02:00,35.4,31.6,30.27,North,-999,0.0,0.0,86,0.00,,,-99.99,FreeWX-Wi 1.01,2013-04-23 11:02:00,
2013-04-23 04:07:00,35.4,31.6,30.27,North,-999,0.0,0.0,86,0.00,,,-99.99,FreeWX-Wi 1.01,2013-04-23 11:07:00,
2013-04-23 04:12:00,35.4,32.0,30.27,North,-999,0.0,0.0,87,0.00,,,-99.99,FreeWX-Wi 1.01,2013-04-23 11:12:00,
2013-04-23 04:17:00,35.2,31.8,-100.00,North,-999,0.0,0.0,87,0.00,,,-99.99,FreeWX-Wi 1.01,2013-04-23 11:17:00,
2013-04-23 04:22:00,35.1,31.8,30.30,North,-999,0.0,0.0,88,0.00,,,-99.99,FreeWX-Wi 1.01,2013-04-23 11:22:00,
2013-04-23 04:27:00,35.1,31.8,30.30,North,-999,0.0,0.0,88,0.00,,,-99.99,FreeWX-Wi 1.01,2013-04-23 11:27:00,
2013-04-23 04:32:00,35.1,32.2,30.30,North,-999,0.0,0.0,89,0.00,,,-99.99,FreeWX-Wi 1.01,2013-04-23 11:32:00,
2013-04-23 04:37:00,35.1,32.2,30.30,North,-999,0.0,0.0,89,0.00,,,-99.99,FreeWX-Wi 1.01,2013-04-23 11:37:00,
2013-04-23 04:42:00,35.1,32.2,30.30,North,-999,0.0,0.0,89,0.00,,,-99.99,FreeWX-Wi 1.01,2013-04-23 11:42:00,
2013-04-23 04:47:00,34.9,32.0,30.30,North,-999,0.0,0.0,89,0.00,,,-99.99,FreeWX-Wi 1.01,2013-04-23 11:47:00,
2013-04-23 04:52:00,35.1,32.4,30.27,North,-999,0.0,0.0,90,0.00,,,-99.99,FreeWX-Wi 1.01,2013-04-23 11:52:00,
2013-04-23 04:57:00,34.9,32.2,30.27,North,-999,0.0,0.0,90,0.00,,,-99.99,FreeWX-Wi 1.01,2013-04-23 11:57:00,
2013-04-23 05:02:00,34.5,31.8,30.27,North,-999,0.0,0.0,90,0.00,,,-99.99,FreeWX-Wi 1.01,2013-04-23 12:02:00,
2013-04-23 05:07:00,34.5,32.2,30.27,North,-999,0.0,0.0,91,0.00,,,-99.99,FreeWX-Wi 1.01,2013-04-23 12:07:00,
2013-04-23 05:12:00,34.7,32.4,30.27,North,-999,0.0,0.0,91,0.00,,,-99.99,FreeWX-Wi 1.01,2013-04-23 12:12:00,
2013-04-23 05:17:00,34.9,32.7,30.27,North,-999,0.0,0.0,92,0.00,,,-99.99,FreeWX-Wi 1.01,2013-04-23 12:17:00,
2013-04-23 05:22:00,34.9,32.7,30.27,North,-999,0.0,0.0,92,0.00,,,-99.99,FreeWX-Wi 1.01,2013-04-23 12:22:00,
2013-04-23 05:27:00,34.7,32.5,30.27,North,-999,0.0,0.0,92,0.00,,,-99.99,FreeWX-Wi 1.01,2013-04-23 12:27:00,
2013-04-23 05:32:00,34.5,32.4,30.27,North,-999,0.0,0.0,92,0.00,,,-99.99,FreeWX-Wi 1.01,2013-04-23 12:32:00,
2013-04-23 05:37:00,34.5,32.4,30.27,North,-999,0.0,0.0,92,0.00,,,-99.99,FreeWX-Wi 1.01,2013-04-23 12:37:00,
2013-04-23 05:42:00,34.7,32.9,30.27,North,-999,0.0,0.0,93,0.00,,,-99.99,FreeWX-Wi 1.01,2013-04-23 12:42:00,
2013-04-23 05:47:00,34.7,32.9,30.27,North,-999,0.0,0.0,93,0.00,,,-99.99,FreeWX-Wi 1.01,2013-04-23 12:47:00,
2013-04-23 05:52:00,34.7,32.9,30.27,North,-999,0.0,0.0,93,0.00,,,-99.99,FreeWX-Wi 1.01,2013-04-23 12:52:00,
2013-04-23 05:57:00,34.9,33.1,30.27,North,-999,0.0,2.7,93,0.00,,,-99.99,FreeWX-Wi 1.01,2013-04-23 12:57:00,
2013-04-23 06:02:00,35.1,33.4,30.27,North,-999,0.0,0.0,94,0.00,,,-99.99,FreeWX-Wi 1.01,2013-04-23 13:02:00,
2013-04-23 06:07:00,35.1,33.4,30.27,North,-999,0.0,0.0,94,0.00,,,-99.99,FreeWX-Wi 1.01,2013-04-23 13:07:00,
2013-04-23 06:12:00,34.9,33.3,30.27,North,-999,0.0,0.0,94,0.00,,,-99.99,FreeWX-Wi 1.01,2013-04-23 13:12:00,
2013-04-23 06:17:00,35.1,33.4,30.27,North,-999,0.0,2.7,94,0.00,,,-99.99,FreeWX-Wi 1.01,2013-04-23 13:17:00,
2013-04-23 06:22:00,35.1,33.4,30.27,North,-999,0.0,0.0,94,0.00,,,-99.99,FreeWX-Wi 1.01,2013-04-23 13:22:00,
2013-04-23 06:27:00,35.4,34.2,30.27,North,-999,0.0,0.0,95,0.00,,,-99.99,FreeWX-Wi 1.01,2013-04-23 13:27:00,
2013-04-23 06:32:00,35.6,34.0,30.27,North,-999,0.0,0.0,94,0.00,,,-99.99,FreeWX-Wi 1.01,2013-04-23 13:32:00,
2013-04-23 06:37:00,36.0,34.7,-100.00,North,-999,0.0,0.0,95,0.00,,,-99.99,FreeWX-Wi 1.01,2013-04-23 13:37:00,
2013-04-23 06:42:00,36.1,34.9,30.27,North,-999,0.0,0.0,95,0.00,,,-99.99,FreeWX-Wi 1.01,2013-04-23 13:42:00,
2013-04-23 06:47:00,36.5,35.2,30.27,North,-999,0.0,0.0,95,0.00,,,-99.99,FreeWX-Wi 1.01,2013-04-23 13:47:00,
2013-04-23 06:52:00,36.7,35.4,30.27,North,-999,0.0,2.7,95,0.00,,,-99.99,FreeWX-Wi 1.01,2013-04-23 13:52:00,
2013-04-23 06:57:00,36.9,35.8,30.27,North,-999,0.0,3.1,96,0.00,,,-99.99,FreeWX-Wi 1.01,2013-04-23 13:57:00,
2013-04-23 07:02:00,37.0,36.0,-100.00,North,-999,0.0,0.0,96,0.00,,,-99.99,FreeWX-Wi 1.01,2013-04-23 14:02:00,
2013-04-23 07:07:00,37.6,36.5,30.27,North,-999,0.0,0.0,96,0.00,,,-99.99,FreeWX-Wi 1.01,2013-04-23 14:07:00,
2013-04-23 07:12:00,37.9,36.9,30.27,North,-999,0.0,0.0,96,0.00,,,-99.99,FreeWX-Wi 1.01,2013-04-23 14:12:00,
2013-04-23 07:17:00,38.7,37.6,30.27,North,-999,0.0,2.7,96,0.00,,,-99.99,FreeWX-Wi 1.01,2013-04-23 14:17:00,
2013-04-23 07:22:00,39.4,38.3,30.27,North,-999,0.0,2.7,96,0.00,,,-99.99,FreeWX-Wi 1.01,2013-04-23 14:22:00,
2013-04-23 07:27:00,39.9,39.2,30.27,North,-999,0.0,0.0,97,0.00,,,-99.99,FreeWX-Wi 1.01,2013-04-23 14:27:00,
2013-04-23 07:32:00,40.6,39.9,-100.00,North,-999,0.0,2.7,97,0.00,,,-99.99,FreeWX-Wi 1.01,2013-04-23 14:32:00,
2013-04-23 07:37:00,41.5,40.8,30.27,North,-999,0.0,0.0,97,0.00,,,-99.99,FreeWX-Wi 1.01,2013-04-23 14:37:00,
2013-04-23 07:42:00,42.1,41.4,30.27,North,-999,0.0,2.7,97,0.00,,,-99.99,FreeWX-Wi 1.01,2013-04-23 14:42:00,
2013-04-23 07:47:00,42.4,41.2,30.27,North,-999,0.0,0.0,95,0.00,,,-99.99,FreeWX-Wi 1.01,2013-04-23 14:47:00,
2013-04-23 07:52:00,43.7,42.1,30.24,North,-999,0.0,0.0,94,0.00,,,-99.99,FreeWX-Wi 1.01,2013-04-23 14:52:00,
2013-04-23 07:57:00,44.8,42.6,30.24,North,-999,0.0,0.0,92,0.00,,,-99.99,FreeWX-Wi 1.01,2013-04-23 14:57:00,
2013-04-23 08:02:00,45.1,42.1,-100.00,North,-999,0.0,0.0,89,0.00,,,-99.99,FreeWX-Wi 1.01,2013-04-23 15:02:00,
2013-04-23 08:07:00,45.7,41.4,30.24,North,-999,0.0,2.7,85,0.00,,,-99.99,FreeWX-Wi 1.01,2013-04-23 15:07:00,
2013-04-23 08:12:00,46.2,41.0,30.24,North,-999,0.0,2.2,82,0.00,,,-99.99,FreeWX-Wi 1.01,2013-04-23 15:12:00,
2013-04-23 08:17:00,46.9,40.1,30.24,North,-999,0.0,0.0,77,0.00,,,-99.99,FreeWX-Wi 1.01,2013-04-23 15:17:00,
2013-04-23 08:22:00,47.8,39.6,30.24,North,-999,0.0,2.2,73,0.00,,,-99.99,FreeWX-Wi 1.01,2013-04-23 15:22:00,
2013-04-23 08:27:00,48.7,38.3,-100.00,North,-999,0.0,0.0,67,0.00,,,-99.99,FreeWX-Wi 1.01,2013-04-23 15:27:00,
2013-04-23 08:32:00,50.0,37.9,-100.00,North,-999,0.0,0.0,63,0.00,,,-99.99,FreeWX-Wi 1.01,2013-04-23 15:32:00,
2013-04-23 08:37:00,50.5,36.7,30.24,North,-999,0.0,0.0,59,0.00,,,-99.99,FreeWX-Wi 1.01,2013-04-23 15:37:00,
2013-04-23 08:42:00,51.1,35.4,30.24,North,-999,0.0,3.1,55,0.00,,,-99.99,FreeWX-Wi 1.01,2013-04-23 15:42:00,
2013-04-23 08:47:00,51.1,34.5,30.24,North,-999,0.0,3.1,53,0.00,,,-99.99,FreeWX-Wi 1.01,2013-04-23 15:47:00,
2013-04-23 08:52:00,50.4,33.8,30.24,North,-999,0.0,3.6,53,0.00,,,-99.99,FreeWX-Wi 1.01,2013-04-23 15:52:00,
2013-04-23 08:57:00,50.5,35.1,30.24,North,-999,0.0,3.1,55,0.00,,,-99.99,FreeWX-Wi 1.01,2013-04-23 15:57:00,
2013-04-23 09:02:00,50.9,35.2,-100.00,North,-999,0.0,4.0,55,0.00,,,-99.99,FreeWX-Wi 1.01,2013-04-23 16:02:00,
2013-04-23 09:07:00,51.6,36.0,30.24,East,84,1.0,3.6,55,0.00,,,-99.99,FreeWX-Wi 1.01,2013-04-23 16:07:00,
2013-04-23 09:12:00,52.0,35.8,30.24,ENE,78,1.0,3.1,54,0.00,,,-99.99,FreeWX-Wi 1.01,2013-04-23 16:12:00,
2013-04-23 09:17:00,53.1,37.4,30.24,ENE,75,1.0,3.1,55,0.00,,,-99.99,FreeWX-Wi 1.01,2013-04-23 16:17:00,
2013-04-23 09:22:00,54.3,37.0,30.21,East,82,1.0,2.7,52,0.00,,,-99.99,FreeWX-Wi 1.01,2013-04-23 16:22:00,
2013-04-23 09:27:00,54.9,36.5,30.21,East,93,1.0,4.0,50,0.00,,,-99.99,FreeWX-Wi 1.01,2013-04-23 16:27:00,
2013-04-23 09:32:00,54.7,36.3,30.21,East,94,1.0,3.6,50,0.00,,,-99.99,FreeWX-Wi 1.01,2013-04-23 16:32:00,
2013-04-23 09:37:00,53.8,35.6,30.21,East,100,1.0,4.0,50,0.00,,,-99.99,FreeWX-Wi 1.01,2013-04-23 16:37:00,
2013-04-23 09:42:00,53.8,35.6,30.21,ESE,117,1.0,2.2,50,0.00,,,-99.99,FreeWX-Wi 1.01,2013-04-23 16:42:00,
2013-04-23 09:47:00,54.3,34.0,30.21,SE,141,1.0,4.0,46,0.00,,,-99.99,FreeWX-Wi 1.01,2013-04-23 16:47:00,
2013-04-23 09:52:00,54.1,34.3,30.21,SE,142,1.0,4.9,47,0.00,,,-99.99,FreeWX-Wi 1.01,2013-04-23 16:52:00,
2013-04-23 09:57:00,54.3,35.6,30.21,SE,137,1.0,2.7,49,0.00,,,-99.99,FreeWX-Wi 1.01,2013-04-23 16:57:00,
2013-04-23 10:02:00,54.9,35.1,30.21,SE,130,1.0,2.7,47,0.00,,,-99.99,FreeWX-Wi 1.01,2013-04-23 17:02:00,
2013-04-23 10:07:00,55.2,35.4,30.21,SE,128,1.0,0.0,47,0.00,,,-99.99,FreeWX-Wi 1.01,2013-04-23 17:07:00,
2013-04-23 10:12:00,57.7,34.2,30.21,North,-999,0.0,3.6,41,0.00,,,-99.99,FreeWX-Wi 1.01,2013-04-23 17:12:00,
2013-04-23 10:17:00,57.9,31.8,30.21,SE,139,1.0,5.8,37,0.00,,,-99.99,FreeWX-Wi 1.01,2013-04-23 17:17:00,
2013-04-23 10:22:00,57.4,30.7,30.21,SE,140,1.0,5.4,36,0.00,,,-99.99,FreeWX-Wi 1.01,2013-04-23 17:22:00,
2013-04-23 10:27:00,56.5,30.6,30.21,SSE,148,1.0,3.1,37,0.00,,,-99.99,FreeWX-Wi 1.01,2013-04-23 17:27:00,
2013-04-23 10:32:00,56.3,31.1,-100.00,SSE,163,1.0,2.7,38,0.00,,,-99.99,FreeWX-Wi 1.01,2013-04-23 17:32:00,
2013-04-23 10:37:00,55.2,29.5,-100.00,South,180,1.0,2.7,37,0.00,,,-99.99,FreeWX-Wi 1.01,2013-04-23 17:37:00,
2013-04-23 10:42:00,55.0,30.6,30.21,SSW,204,1.0,0.0,39,0.00,,,-99.99,FreeWX-Wi 1.01,2013-04-23 17:42:00,
2013-04-23 10:47:00,55.2,31.3,30.21,SW,223,1.0,0.0,40,0.00,,,-99.99,FreeWX-Wi 1.01,2013-04-23 17:47:00,
2013-04-23 10:52:00,55.2,31.3,30.24,North,-999,0.0,2.2,40,0.00,,,-99.99,FreeWX-Wi 1.01,2013-04-23 17:52:00,
2013-04-23 10:57:00,55.6,32.2,30.24,North,-999,0.0,4.0,41,0.00,,,-99.99,FreeWX-Wi 1.01,2013-04-23 17:57:00,
2013-04-23 11:02:00,56.1,32.2,30.24,North,-999,0.0,2.7,40,0.00,,,-99.99,FreeWX-Wi 1.01,2013-04-23 18:02:00,
2013-04-23 11:07:00,56.1,32.2,30.24,North,-999,0.0,3.1,40,0.00,,,-99.99,FreeWX-Wi 1.01,2013-04-23 18:07:00,
2013-04-23 11:12:00,55.9,33.3,-100.00,North,-999,0.0,4.0,42,0.00,,,-99.99,FreeWX-Wi 1.01,2013-04-23 18:12:00,
2013-04-23 11:22:00,57.0,34.7,-100.00,SW,223,1.0,4.0,43,0.00,,,-99.99,FreeWX-Wi 1.01,2013-04-23 18:22:00,
2013-04-23 11:27:00,57.7,34.9,-100.00,West,268,1.0,2.7,42,0.00,,,-99.99,FreeWX-Wi 1.01,2013-04-23 18:27:00,
2013-04-23 11:32:00,58.3,36.5,30.24,NW,316,1.0,2.2,44,0.00,,,-99.99,FreeWX-Wi 1.01,2013-04-23 18:32:00,
2013-04-23 11:37:00,59.4,35.6,30.24,NNW,334,1.0,2.7,41,0.00,,,-99.99,FreeWX-Wi 1.01,2013-04-23 18:37:00,
2013-04-23 11:42:00,60.6,35.6,30.24,NW,316,1.0,3.1,39,0.00,,,-99.99,FreeWX-Wi 1.01,2013-04-23 18:42:00,
2013-04-23 11:47:00,61.0,34.5,30.24,NNW,343,1.0,3.6,37,0.00,,,-99.99,FreeWX-Wi 1.01,2013-04-23 18:47:00,
2013-04-23 11:52:00,60.6,34.9,30.21,WNW,298,1.0,4.0,38,0.00,,,-99.99,FreeWX-Wi 1.01,2013-04-23 18:52:00,
2013-04-23 11:57:00,61.3,34.9,30.21,WSW,246,1.0,4.0,37,0.00,,,-99.99,FreeWX-Wi 1.01,2013-04-23 18:57:00,
2013-04-23 12:02:00,61.7,34.5,30.21,SW,222,1.0,3.1,36,0.00,,,-99.99,FreeWX-Wi 1.01,2013-04-23 19:02:00,
2013-04-23 12:07:00,61.5,34.3,30.21,SSW,205,1.0,3.1,36,0.00,,,-99.99,FreeWX-Wi 1.01,2013-04-23 19:07:00,
2013-04-23 12:12:00,60.8,33.6,-100.00,SSW,195,1.0,3.1,36,0.00,,,-99.99,FreeWX-Wi 1.01,2013-04-23 19:12:00,
2013-04-23 12:17:00,61.0,33.8,-100.00,South,175,1.0,4.9,36,0.00,,,-99.99,FreeWX-Wi 1.01,2013-04-23 19:17:00,
2013-04-23 12:22:00,61.2,34.7,30.21,SSE,160,1.0,3.1,37,0.00,,,-99.99,FreeWX-Wi 1.01,2013-04-23 19:22:00,
2013-04-23 12:27:00,61.5,34.3,-100.00,SSE,165,1.0,3.1,36,0.00,,,-99.99,FreeWX-Wi 1.01,2013-04-23 19:27:00,
2013-04-23 12:32:00,61.5,33.6,30.21,SSE,149,1.0,5.8,35,0.00,,,-99.99,FreeWX-Wi 1.01,2013-04-23 19:32:00,
2013-04-23 12:37:00,60.8,32.9,-100.00,SE,128,1.0,5.4,35,0.00,,,-99.99,FreeWX-Wi 1.01,2013-04-23 19:37:00,
2013-04-23 12:42:00,60.6,32.9,30.21,ESE,105,2.0,4.0,35,0.00,,,-99.99,FreeWX-Wi 1.01,2013-04-23 19:42:00,
2013-04-23 12:47:00,60.6,33.4,-100.00,ESE,108,2.0,3.1,36,0.00,,,-99.99,FreeWX-Wi 1.01,2013-04-23 19:47:00,
2013-04-23 12:52:00,61.3,33.4,-100.00,East,100,1.0,3.6,35,0.00,,,-99.99,FreeWX-Wi 1.01,2013-04-23 19:52:00,
2013-04-23 12:57:00,62.2,33.4,30.21,ESE,109,2.0,5.4,34,0.00,,,-99.99,FreeWX-Wi 1.01,2013-04-23 19:57:00,
2013-04-23 13:02:00,62.8,34.0,30.21,ESE,120,2.0,5.4,34,0.00,,,-99.99,FreeWX-Wi 1.01,2013-04-23 20:02:00,
2013-04-23 13:07:00,63.1,33.6,30.21,SE,125,2.0,3.6,33,0.00,,,-99.99,FreeWX-Wi 1.01,2013-04-23 20:07:00,
2013-04-23 13:12:00,63.1,30.4,-100.00,SSE,147,2.0,4.9,29,0.00,,,-99.99,FreeWX-Wi 1.01,2013-04-23 20:12:00,
2013-04-23 13:17:00,63.1,27.7,30.21,South,174,2.0,5.4,26,0.00,,,-99.99,FreeWX-Wi 1.01,2013-04-23 20:17:00,
2013-04-23 13:22:00,63.0,27.5,-100.00,South,176,2.0,7.2,26,0.00,,,-99.99,FreeWX-Wi 1.01,2013-04-23 20:22:00,
2013-04-23 13:28:00,63.5,28.9,-100.00,South,175,2.0,3.1,27,0.00,,,-99.99,FreeWX-Wi 1.01,2013-04-23 20:28:00,
2013-04-23 13:33:00,64.6,32.4,-100.00,South,172,2.0,3.1,30,0.00,,,-99.99,FreeWX-Wi 1.01,2013-04-23 20:33:00,
2013-04-23 13:38:00,64.9,31.1,30.18,SSE,161,2.0,3.1,28,0.00,,,-99.99,FreeWX-Wi 1.01,2013-04-23 20:38:00,
2013-04-23 13:43:00,65.5,30.6,30.18,South,175,2.0,3.6,27,0.00,,,-99.99,FreeWX-Wi 1.01,2013-04-23 20:43:00,
2013-04-23 13:48:00,65.3,30.4,30.18,South,173,2.0,3.6,27,0.00,,,-99.99,FreeWX-Wi 1.01,2013-04-23 20:48:00,
2013-04-23 13:53:00,64.4,29.7,-100.00,SSE,156,2.0,5.8,27,0.00,,,-99.99,FreeWX-Wi 1.01,2013-04-23 20:53:00,
2013-04-23 13:58:00,63.9,30.2,-100.00,ENE,72,1.0,2.7,28,0.00,,,-99.99,FreeWX-Wi 1.01,2013-04-23 20:58:00,
2013-04-23 14:03:00,63.7,29.1,-100.00,NE,38,2.0,7.6,27,0.00,,,-99.99,FreeWX-Wi 1.01,2013-04-23 21:03:00,
2013-04-23 14:08:00,63.0,28.4,30.18,NNE,23,2.0,7.6,27,0.00,,,-99.99,FreeWX-Wi 1.01,2013-04-23 21:08:00,
2013-04-23 14:13:00,62.8,27.3,-100.00,NNE,16,2.0,6.3,26,0.00,,,-99.99,FreeWX-Wi 1.01,2013-04-23 21:13:00,
2013-04-23 14:18:00,63.9,29.3,-100.00,NNE,20,2.0,6.3,27,0.00,,,-99.99,FreeWX-Wi 1.01,2013-04-23 21:18:00,
2013-04-23 14:23:00,64.8,30.0,-100.00,NNE,16,2.0,5.8,27,0.00,,,-99.99,FreeWX-Wi 1.01,2013-04-23 21:23:00,
2013-04-23 14:28:00,65.5,29.7,30.18,North,3,2.0,4.0,26,0.00,,,-99.99,FreeWX-Wi 1.01,2013-04-23 21:28:00,
2013-04-23 14:33:00,64.9,28.2,-100.00,North,1,3.0,7.6,25,0.00,,,-99.99,FreeWX-Wi 1.01,2013-04-23 21:33:00,
2013-04-23 14:38:00,64.0,28.4,30.18,North,8,3.0,6.7,26,0.00,,,-99.99,FreeWX-Wi 1.01,2013-04-23 21:38:00,
2013-04-23 14:43:00,64.0,28.4,-100.00,North,355,2.0,5.4,26,0.00,,,-99.99,FreeWX-Wi 1.01,2013-04-23 21:43:00,
2013-04-23 14:53:00,63.9,28.2,30.18,North,4,2.0,10.1,26,0.00,,,-99.99,FreeWX-Wi 1.01,2013-04-23 21:53:00,
2013-04-23 14:58:00,64.9,29.3,-100.00,North,353,2.0,4.0,26,0.00,,,-99.99,FreeWX-Wi 1.01,2013-04-23 21:58:00,
2013-04-23 15:03:00,65.5,29.7,30.18,North,1,2.0,4.0,26,0.00,,,-99.99,FreeWX-Wi 1.01,2013-04-23 22:03:00,
2013-04-23 15:08:00,64.6,28.0,30.18,North,5,2.0,4.0,25,0.00,,,-99.99,FreeWX-Wi 1.01,2013-04-23 22:08:00,
2013-04-23 15:13:00,63.9,27.3,30.18,North,10,2.0,3.1,25,0.00,,,-99.99,FreeWX-Wi 1.01,2013-04-23 22:13:00,
2013-04-23 15:18:00,64.8,28.0,30.18,North,358,2.0,3.1,25,0.00,,,-99.99,FreeWX-Wi 1.01,2013-04-23 22:18:00,
2013-04-23 15:23:00,65.1,28.4,30.18,North,359,2.0,3.1,25,0.00,,,-99.99,FreeWX-Wi 1.01,2013-04-23 22:23:00,
2013-04-23 15:28:00,64.9,28.2,30.18,North,354,2.0,3.1,25,0.00,,,-99.99,FreeWX-Wi 1.01,2013-04-23 22:28:00,
2013-04-23 15:33:00,64.6,28.0,30.18,North,349,2.0,4.0,25,0.00,,,-99.99,FreeWX-Wi 1.01,2013-04-23 22:33:00,
2013-04-23 15:38:00,64.9,28.2,30.15,North,349,2.0,5.8,25,0.00,,,-99.99,FreeWX-Wi 1.01,2013-04-23 22:38:00,
2013-04-23 15:43:00,65.5,27.7,30.15,North,357,2.0,7.2,24,0.00,,,-99.99,FreeWX-Wi 1.01,2013-04-23 22:43:00,
2013-04-23 15:48:00,64.9,27.3,30.15,North,355,2.0,3.6,24,0.00,,,-99.99,FreeWX-Wi 1.01,2013-04-23 22:48:00,
2013-04-23 15:53:00,64.8,27.1,30.15,North,357,2.0,5.8,24,0.00,,,-99.99,FreeWX-Wi 1.01,2013-04-23 22:53:00,
2013-04-23 15:58:00,63.9,26.4,-100.00,NNE,16,2.0,5.4,24,0.00,,,-99.99,FreeWX-Wi 1.01,2013-04-23 22:58:00,
2013-04-23 16:03:00,63.9,27.3,30.15,North,6,2.0,3.6,25,0.00,,,-99.99,FreeWX-Wi 1.01,2013-04-23 23:03:00,
2013-04-23 16:08:00,63.7,26.2,30.15,North,10,2.0,5.8,24,0.00,,,-99.99,FreeWX-Wi 1.01,2013-04-23 23:08:00,
2013-04-23 16:13:00,63.1,25.7,30.15,NNE,18,2.0,5.8,24,0.00,,,-99.99,FreeWX-Wi 1.01,2013-04-23 23:13:00,
2013-04-23 16:18:00,63.5,26.1,30.15,NNE,23,2.0,6.3,24,0.00,,,-99.99,FreeWX-Wi 1.01,2013-04-23 23:18:00,
2013-04-23 16:23:00,62.8,25.5,30.15,NNE,19,2.0,3.6,24,0.00,,,-99.99,FreeWX-Wi 1.01,2013-04-23 23:23:00,
2013-04-23 16:28:00,62.1,25.9,30.15,North,10,2.0,5.4,25,0.00,,,-99.99,FreeWX-Wi 1.01,2013-04-23 23:28:00,
2013-04-23 16:33:00,61.2,25.0,30.15,NNE,18,2.0,3.6,25,0.00,,,-99.99,FreeWX-Wi 1.01,2013-04-23 23:33:00,
2013-04-23 16:38:00,61.0,25.0,30.15,North,11,2.0,3.1,25,0.00,,,-99.99,FreeWX-Wi 1.01,2013-04-23 23:38:00,
2013-04-23 16:43:00,60.8,24.8,30.15,North,358,2.0,5.4,25,0.00,,,-99.99,FreeWX-Wi 1.01,2013-04-23 23:43:00,
2013-04-23 16:48:00,60.8,24.8,30.15,North,354,2.0,3.1,25,0.00,,,-99.99,FreeWX-Wi 1.01,2013-04-23 23:48:00,
2013-04-23 16:53:00,60.8,24.8,30.15,NNW,345,1.0,4.9,25,0.00,,,-99.99,FreeWX-Wi 1.01,2013-04-23 23:53:00,
2013-04-23 16:58:00,60.3,25.2,30.15,NNW,338,1.0,3.1,26,0.00,,,-99.99,FreeWX-Wi 1.01,2013-04-23 23:58:00,
2013-04-23 17:03:00,60.1,25.2,30.15,NNW,331,1.0,3.1,26,0.00,,,-99.99,FreeWX-Wi 1.01,2013-04-24 00:03:00,
2013-04-23 17:08:00,60.1,25.2,30.15,NW,322,1.0,3.1,26,0.00,,,-99.99,FreeWX-Wi 1.01,2013-04-24 00:08:00,
2013-04-23 17:13:00,59.7,24.8,30.15,NW,326,1.0,3.6,26,0.00,,,-99.99,FreeWX-Wi 1.01,2013-04-24 00:13:00,
2013-04-23 17:18:00,59.7,24.8,30.15,NNW,335,1.0,3.6,26,0.00,,,-99.99,FreeWX-Wi 1.01,2013-04-24 00:18:00,
2013-04-23 17:23:00,59.7,24.8,-100.00,NNW,336,1.0,2.7,26,0.00,,,-99.99,FreeWX-Wi 1.01,2013-04-24 00:23:00,
2013-04-23 17:28:00,59.7,24.8,30.15,NNW,345,1.0,2.7,26,0.00,,,-99.99,FreeWX-Wi 1.01,2013-04-24 00:28:00,
2013-04-23 17:33:00,59.7,24.8,-100.00,North,351,1.0,5.4,26,0.00,,,-99.99,FreeWX-Wi 1.01,2013-04-24 00:33:00,
2013-04-23 17:38:00,59.7,24.8,-100.00,North,357,1.0,5.4,26,0.00,,,-99.99,FreeWX-Wi 1.01,2013-04-24 00:38:00,
2013-04-23 17:43:00,59.4,24.4,30.15,North,2,1.0,4.0,26,0.00,,,-99.99,FreeWX-Wi 1.01,2013-04-24 00:43:00,
2013-04-23 17:53:00,59.2,24.3,30.15,North,1,1.0,3.6,26,0.00,,,-99.99,FreeWX-Wi 1.01,2013-04-24 00:53:00,
2013-04-23 17:58:00,59.0,24.1,30.15,North,5,1.0,3.6,26,0.00,,,-99.99,FreeWX-Wi 1.01,2013-04-24 00:58:00,
2013-04-23 18:03:00,59.0,24.1,30.15,North,2,1.0,3.1,26,0.00,,,-99.99,FreeWX-Wi 1.01,2013-04-24 01:03:00,
2013-04-23 18:08:00,59.2,25.2,30.15,North,1,1.0,2.7,27,0.00,,,-99.99,FreeWX-Wi 1.01,2013-04-24 01:08:00,
2013-04-23 18:18:00,58.8,25.9,30.15,North,351,1.0,2.2,28,0.00,,,-99.99,FreeWX-Wi 1.01,2013-04-24 01:18:00,
2013-04-23 18:23:00,58.8,25.0,30.15,North,354,1.0,3.1,27,0.00,,,-99.99,FreeWX-Wi 1.01,2013-04-24 01:23:00,
2013-04-23 18:28:00,58.5,25.5,30.15,North,359,1.0,5.4,28,0.00,,,-99.99,FreeWX-Wi 1.01,2013-04-24 01:28:00,
2013-04-23 18:33:00,58.3,25.3,30.15,North,-999,0.0,2.7,28,0.00,,,-99.99,FreeWX-Wi 1.01,2013-04-24 01:33:00,
2013-04-23 18:38:00,58.1,25.2,30.15,North,-999,0.0,2.7,28,0.00,,,-99.99,FreeWX-Wi 1.01,2013-04-24 01:38:00,
2013-04-23 18:43:00,57.7,24.8,30.15,North,-999,0.0,3.6,28,0.00,,,-99.99,FreeWX-Wi 1.01,2013-04-24 01:43:00,
2013-04-23 18:48:00,57.7,24.8,30.15,North,-999,0.0,4.0,28,0.00,,,-99.99,FreeWX-Wi 1.01,2013-04-24 01:48:00,
2013-04-23 18:53:00,57.7,24.8,30.15,North,-999,0.0,2.7,28,0.00,,,-99.99,FreeWX-Wi 1.01,2013-04-24 01:53:00,
2013-04-23 18:58:00,57.6,24.6,30.15,North,-999,0.0,3.1,28,0.00,,,-99.99,FreeWX-Wi 1.01,2013-04-24 01:58:00,
2013-04-23 19:03:00,57.4,24.6,30.15,North,-999,0.0,3.6,28,0.00,,,-99.99,FreeWX-Wi 1.01,2013-04-24 02:03:00,
2013-04-23 19:08:00,57.0,25.2,30.15,North,-999,0.0,3.1,29,0.00,,,-99.99,FreeWX-Wi 1.01,2013-04-24 02:08:00,
2013-04-23 19:18:00,56.7,24.8,-100.00,North,-999,0.0,3.1,29,0.00,,,-99.99,FreeWX-Wi 1.01,2013-04-24 02:18:00,
2013-04-23 19:23:00,56.7,24.8,30.15,North,-999,0.0,2.7,29,0.00,,,-99.99,FreeWX-Wi 1.01,2013-04-24 02:23:00,
2013-04-23 19:33:00,55.9,25.7,30.15,North,-999,0.0,0.0,31,0.00,,,-99.99,FreeWX-Wi 1.01,2013-04-24 02:33:00,
2013-04-23 19:38:00,55.8,25.5,-100.00,North,-999,0.0,0.0,31,0.00,,,-99.99,FreeWX-Wi 1.01,2013-04-24 02:38:00,
2013-04-23 19:43:00,55.2,26.6,30.15,North,-999,0.0,0.0,33,0.00,,,-99.99,FreeWX-Wi 1.01,2013-04-24 02:43:00,
2013-04-23 19:49:00,55.2,27.3,30.15,North,-999,0.0,3.1,34,0.00,,,-99.99,FreeWX-Wi 1.01,2013-04-24 02:49:00,
2013-04-23 19:54:00,55.2,28.0,30.15,North,-999,0.0,2.7,35,0.00,,,-99.99,FreeWX-Wi 1.01,2013-04-24 02:54:00,
2013-04-23 19:59:00,55.0,28.6,30.15,North,-999,0.0,0.0,36,0.00,,,-99.99,FreeWX-Wi 1.01,2013-04-24 02:59:00,
2013-04-23 20:04:00,54.9,28.4,-100.00,North,-999,0.0,0.0,36,0.00,,,-99.99,FreeWX-Wi 1.01,2013-04-24 03:04:00,
2013-04-23 20:09:00,54.5,28.8,30.15,North,-999,0.0,0.0,37,0.00,,,-99.99,FreeWX-Wi 1.01,2013-04-24 03:09:00,
2013-04-23 20:14:00,53.8,28.0,-100.00,North,-999,0.0,0.0,37,0.00,,,-99.99,FreeWX-Wi 1.01,2013-04-24 03:14:00,
2013-04-23 20:19:00,52.5,27.7,30.15,North,-999,0.0,0.0,38,0.00,,,-99.99,FreeWX-Wi 1.01,2013-04-24 03:19:00,
2013-04-23 20:24:00,51.6,27.5,30.15,North,-999,0.0,0.0,39,0.00,,,-99.99,FreeWX-Wi 1.01,2013-04-24 03:24:00,
2013-04-23 20:29:00,51.1,27.0,30.15,North,-999,0.0,0.0,39,0.00,,,-99.99,FreeWX-Wi 1.01,2013-04-24 03:29:00,
2013-04-23 20:39:00,49.8,27.7,30.15,North,-999,0.0,0.0,42,0.00,,,-99.99,FreeWX-Wi 1.01,2013-04-24 03:39:00,
2013-04-23 20:49:00,49.1,28.8,30.15,North,-999,0.0,0.0,45,0.00,,,-99.99,FreeWX-Wi 1.01,2013-04-24 03:49:00,
2013-04-23 20:54:00,48.7,28.9,30.18,North,-999,0.0,0.0,46,0.00,,,-99.99,FreeWX-Wi 1.01,2013-04-24 03:54:00,
2013-04-23 21:05:00,48.2,28.9,30.18,North,-999,0.0,0.0,47,0.00,,,-99.99,FreeWX-Wi 1.01,2013-04-24 04:05:00,
2013-04-23 21:10:00,48.0,29.3,30.18,North,-999,0.0,0.0,48,0.00,,,-99.99,FreeWX-Wi 1.01,2013-04-24 04:10:00,
2013-04-23 21:15:00,47.8,29.7,30.18,North,-999,0.0,0.0,49,0.00,,,-99.99,FreeWX-Wi 1.01,2013-04-24 04:15:00,
2013-04-23 21:20:00,47.7,29.5,30.18,North,-999,0.0,0.0,49,0.00,,,-99.99,FreeWX-Wi 1.01,2013-04-24 04:20:00,
2013-04-23 21:25:00,47.5,29.8,30.18,North,-999,0.0,0.0,50,0.00,,,-99.99,FreeWX-Wi 1.01,2013-04-24 04:25:00,
2013-04-23 21:30:00,47.3,29.7,30.18,North,-999,0.0,0.0,50,0.00,,,-99.99,FreeWX-Wi 1.01,2013-04-24 04:30:00,
2013-04-23 21:35:00,47.3,29.7,30.18,North,-999,0.0,0.0,50,0.00,,,-99.99,FreeWX-Wi 1.01,2013-04-24 04:35:00,
2013-04-23 21:40:00,47.1,29.5,30.18,North,-999,0.0,0.0,50,0.00,,,-99.99,FreeWX-Wi 1.01,2013-04-24 04:40:00,
2013-04-23 21:45:00,46.9,29.8,-100.00,North,-999,0.0,0.0,51,0.00,,,-99.99,FreeWX-Wi 1.01,2013-04-24 04:45:00,
2013-04-23 21:50:00,46.8,29.7,30.18,North,-999,0.0,0.0,51,0.00,,,-99.99,FreeWX-Wi 1.01,2013-04-24 04:50:00,
2013-04-23 21:55:00,46.6,29.8,30.18,North,-999,0.0,0.0,52,0.00,,,-99.99,FreeWX-Wi 1.01,2013-04-24 04:55:00,
2013-04-23 22:00:00,46.4,30.2,30.18,North,-999,0.0,0.0,53,0.00,,,-99.99,FreeWX-Wi 1.01,2013-04-24 05:00:00,
2013-04-23 22:05:00,46.2,30.6,30.18,North,-999,0.0,0.0,54,0.00,,,-99.99,FreeWX-Wi 1.01,2013-04-24 05:05:00,
2013-04-23 22:10:00,46.0,30.4,-100.00,North,-999,0.0,0.0,54,0.00,,,-99.99,FreeWX-Wi 1.01,2013-04-24 05:10:00,
2013-04-23 22:15:00,45.9,30.6,30.18,North,-999,0.0,0.0,55,0.00,,,-99.99,FreeWX-Wi 1.01,2013-04-24 05:15:00,
2013-04-23 22:20:00,45.7,30.9,30.18,North,-999,0.0,0.0,56,0.00,,,-99.99,FreeWX-Wi 1.01,2013-04-24 05:20:00,
2013-04-23 22:25:00,45.7,30.9,30.18,North,-999,0.0,0.0,56,0.00,,,-99.99,FreeWX-Wi 1.01,2013-04-24 05:25:00,
2013-04-23 22:30:00,45.5,31.1,30.18,North,-999,0.0,0.0,57,0.00,,,-99.99,FreeWX-Wi 1.01,2013-04-24 05:30:00,
2013-04-23 22:35:00,45.5,31.6,30.18,North,-999,0.0,0.0,58,0.00,,,-99.99,FreeWX-Wi 1.01,2013-04-24 05:35:00,
2013-04-23 22:40:00,45.3,31.5,30.18,North,-999,0.0,0.0,58,0.00,,,-99.99,FreeWX-Wi 1.01,2013-04-24 05:40:00,
2013-04-23 22:45:00,45.3,31.8,30.18,North,-999,0.0,0.0,59,0.00,,,-99.99,FreeWX-Wi 1.01,2013-04-24 05:45:00,
2013-04-23 22:50:00,45.1,31.6,30.18,North,-999,0.0,0.0,59,0.00,,,-99.99,FreeWX-Wi 1.01,2013-04-24 05:50:00,
2013-04-23 22:55:00,45.0,31.5,30.18,North,-999,0.0,0.0,59,0.00,,,-99.99,FreeWX-Wi 1.01,2013-04-24 05:55:00,
2013-04-23 23:00:00,44.8,31.8,30.18,North,-999,0.0,0.0,60,0.00,,,-99.99,FreeWX-Wi 1.01,2013-04-24 06:00:00,
2013-04-23 23:05:00,44.8,31.8,30.18,North,-999,0.0,0.0,60,0.00,,,-99.99,FreeWX-Wi 1.01,2013-04-24 06:05:00,
2013-04-23 23:10:00,44.6,31.6,30.18,North,-999,0.0,0.0,60,0.00,,,-99.99,FreeWX-Wi 1.01,2013-04-24 06:10:00,
2013-04-23 23:15:00,44.6,32.0,30.18,North,-999,0.0,0.0,61,0.00,,,-99.99,FreeWX-Wi 1.01,2013-04-24 06:15:00,
2013-04-23 23:20:00,44.8,32.2,30.18,North,-999,0.0,0.0,61,0.00,,,-99.99,FreeWX-Wi 1.01,2013-04-24 06:20:00,
2013-04-23 23:25:00,44.4,31.8,30.18,North,-999,0.0,0.0,61,0.00,,,-99.99,FreeWX-Wi 1.01,2013-04-24 06:25:00,
2013-04-23 23:30:00,44.1,31.5,30.18,North,-999,0.0,0.0,61,0.00,,,-99.99,FreeWX-Wi 1.01,2013-04-24 06:30:00,
2013-04-23 23:35:00,43.7,31.5,30.18,North,-999,0.0,0.0,62,0.00,,,-99.99,FreeWX-Wi 1.01,2013-04-24 06:35:00,
2013-04-23 23:40:00,43.3,31.6,30.21,North,-999,0.0,0.0,63,0.00,,,-99.99,FreeWX-Wi 1.01,2013-04-24 06:40:00,
2013-04-23 23:45:00,43.2,31.8,30.21,North,-999,0.0,0.0,64,0.00,,,-99.99,FreeWX-Wi 1.01,2013-04-24 06:45:00,
2013-04-23 23:50:00,43.2,32.2,30.21,North,-999,0.0,0.0,65,0.00,,,-99.99,FreeWX-Wi 1.01,2013-04-24 06:50:00,
2013-04-23 23:55:00,43.3,32.4,30.21,North,-999,0.0,0.0,65,0.00,,,-99.99,FreeWX-Wi 1.01,2013-04-24 06:55:00,